Regional Weather Roundup
Issued by NWS

Home | Current Version | Previous Version | Graphics & Text | Print | Product List | Glossary On
Versions: 1 2 3 4 5 6 7 8 9 10 11 12 13 14 15 16 17 18 19 20 21 22 23 24 25 26 27 28 29 30 31 32 33 34 35 36 37 38 39 40 41 42 43 44 45 46 47 48 49 50
000
ASUS43 KOAX 202010
RWRNE

WEATHER ROUNDUP FOR NEBRASKA
NATIONAL WEATHER SERVICE OMAHA NE
300 PM CDT SUN APR 20 2014

NOTES: SATELLITE DATA IS BEING USED TO AUGMENT CLOUD COVER ABOVE
       12000 FEET.
       "FAIR" INDICATES FEW OR NO CLOUDS BELOW 12,000 FEET WITH NO
       SIGNIFICANT WEATHER AND/OR OBSTRUCTIONS TO VISIBILITY.

  * THESE STATIONS DO NOT REPORT WEATHER SUCH AS RAIN...SNOW OR FOG.

NEZ001>004-019>022-054>056-202100-
NEBRASKA PANHANDLE

CITY           SKY/WX    TMP DP  RH WIND       PRES   REMARKS
SCOTTSBLUFF    SUNNY     78  32  18 NW6       29.96F
ALLIANCE       MOSUNNY   76  33  21 W9G17     29.94F
CHADRON        SUNNY     76  38  25 NW8       29.92F
KIMBALL        MOSUNNY   73  24  16 NW13G20   29.99F
SIDNEY         SUNNY     74  35  24 S6        29.98F
$$

NEZ057>060-069>072-079>082-202100-
SOUTHWEST NEBRASKA

CITY           SKY/WX    TMP DP  RH WIND       PRES   REMARKS
NORTH PLATTE   PTSUNNY   73  50  44 E7        29.95F
IMPERIAL       PTSUNNY   71  48  43 VRB3      29.97F
LEXINGTON      PTSUNNY   78  50  38 SW10G16   29.95F
MCCOOK         PTSUNNY   75  52  44 CALM      29.94F
OGALLALA       MOSUNNY   73  42  32 SE3       29.96F
$$

NEZ005>010-023>029-035>040-094-202100-
NORTH CENTRAL NEBRASKA

CITY           SKY/WX    TMP DP  RH WIND       PRES   REMARKS
VALENTINE      SUNNY     78  41  26 S12G22    29.90F
AINSWORTH      SUNNY     78  43  27 S6        29.93F
BROKEN BOW     CLOUDY    68  54  60 SW7       29.97S
O`NEILL        MOSUNNY   77  42  28 SE9       29.93F THUNDER
ORD            PTSUNNY   74  49  41 SW12      29.93F
THEDFORD       SUNNY     80  39  23 S9        29.94F
$$

NEZ041-046>049-061>064-073>077-083>087-202100-
SOUTH CENTRAL NEBRASKA

CITY           SKY/WX    TMP DP  RH WIND       PRES   REMARKS
GRAND ISLAND   LGT RAIN  71  54  54 SW15      29.96S
AURORA         CLOUDY    74  52  45 SW10      29.96F
HASTINGS       CLOUDY    76  50  40 SW9G17    29.96F
HEBRON         PTSUNNY   80  51  36 SW20G26   29.96S
HOLDREGE       CLOUDY    72  52  48 S13       29.96F
KEARNEY *      CLOUDY    73  54  49 S15       29.96F
YORK           CLOUDY    73  54  49 S15       29.97R
$$

NEZ011>018-030>034-042>045-202100-
NORTHEAST NEBRASKA

CITY           SKY/WX    TMP DP  RH WIND       PRES   REMARKS
NORFOLK        PTSUNNY   80  51  36 S8        29.91F
ALBION         PTSUNNY   80  48  32 SW6       29.92F THUNDER
BLAIR          PTSUNNY   80  50  34 S9        29.94F
COLUMBUS *     PTSUNNY   81  52  36 S17       29.93F
FREMONT        PTSUNNY   81  48  31 S14       29.93F
TEKAMAH        MOSUNNY   85  50  29 S20       29.91F
$$

NEZ050>053-065>068-078-088>093-202100-
SOUTHEAST NEBRASKA

CITY           SKY/WX    TMP DP  RH WIND       PRES   REMARKS
LINCOLN        CLOUDY    81  52  36 SW12      29.95F
OMAHA EPPLEY   CLOUDY    81  50  33 S12       29.93F
BEATRICE       CLOUDY    81  52  36 S15       29.96S
FALLS CITY     PTSUNNY   83  54  36 S17G24    29.96F
NEBRASKA CITY  PTSUNNY   83  50  32 SW14      29.96F
PLATTSMOUTH    PTSUNNY   83  47  27 S9G16     29.96S
$$

NEZ044-045-051>053-067-202100-
OMAHA AREA

CITY           SKY/WX    TMP DP  RH WIND       PRES   REMARKS
OMAHA EPPLEY   CLOUDY    81  50  33 S12       29.93F
BLAIR          PTSUNNY   80  50  34 S9        29.94F
FREMONT        PTSUNNY   81  48  31 S14       29.93F
MILLARD        PTSUNNY   81  52  36 W7        29.93F
OFFUTT AFB     PTSUNNY   83  52  33 SW9G17    29.93F
PLATTSMOUTH    PTSUNNY   83  47  27 S9G16     29.96S
WAHOO          FAIR      82  45  27 SW13G18   29.93F
$$



USA.gov is the U.S. government's official web portal to all federal, state and local government web resources and services.